Location: ??????? ?????????
(53.0727°N, 54.0344°E)
Time: 20:31:40
(UTC+00:00)

Daily predictions for brighter satellites

Satellite Brightness Start Highest point End
(mag) Time Altitude Azimuth Time Altitude Azimuth Time Altitude Azimuth
ATLAS 3B R/B 2.9 13:08:37 10° NW 13:15:34 89° SW 13:22:45 10° SE
Cosmos 1455 Rocket 4.1 13:16:45 10° NNW 13:20:58 51° W 13:25:10 10° S
CZ-4B R/B 3.3 13:23:50 10° ENE 13:25:34 13° E 13:27:18 10° ESE
Cosmos 1908 3.2 13:22:18 10° N 13:26:11 81° E 13:30:03 10° SSE
Cosmos 2228 3.7 13:24:28 10° N 13:28:20 32° ENE 13:32:10 10° SE
H-2A R/B 4.3 13:27:41 10° S 13:31:13 40° W 13:34:44 10° NNW
CZ-4C R/B 2.9 13:28:53 10° NNE 13:31:59 51° E 13:35:03 10° S
Cosmos 2227 Rocket 2.7 13:26:22 10° SW 13:31:59 63° NW 13:37:39 10° NNE
NOAA 6 4.4 13:27:33 10° S 13:32:40 72° WSW 13:37:51 10° NNW
Cosmos 2058 Rocket 4.3 13:29:45 10° NNE 13:33:09 21° ENE 13:36:32 10° ESE
Cosmos 2034 Rocket 4.4 13:29:52 10° NNW 13:36:11 71° W 13:42:22 10° S
Cosmos 1707 3.9 13:32:46 10° SSW 13:36:27 44° WNW 13:40:10 10° N
Envisat 4.0 13:34:27 10° S 13:39:24 53° W 13:44:25 10° NNW
ERS-2 4.0 13:41:23 11° ENE 13:42:15 12° E 13:43:46 10° ESE
NOSS 3-1 (C) 4.4 13:37:31 10° NW 13:43:45 40° NNE 13:50:58 10° E
Cosmos 2279 Rocket 4.2 13:37:50 10° N 13:43:54 48° ENE 13:49:56 10° SE
Cosmos 1674 2.7 13:40:57 10° S 13:44:47 89° ESE 13:48:40 10° N
Cosmos 968 Rocket 3.4 13:40:09 10° SSW 13:45:14 72° ESE 13:50:21 10° NNE
Cosmos 1486 Rocket 4.0 13:40:43 10° SSW 13:45:55 70° ESE 13:51:08 10° NNE
SL-24 R/B 4.2 13:41:38 10° SSE 13:45:59 88° ENE 13:50:38 10° NNW
MOS 1 Rocket 4.4 13:44:40 10° NE 13:47:52 20° E 13:51:00 10° SE
Helios 1A Rocket 4.3 13:44:56 10° ESE 13:47:57 20° ENE 13:50:59 10° NNE
CZ-4B R/B 3.4 13:43:04 10° SSE 13:48:38 84° WSW 13:54:19 10° NNW
CREW DRAGON DEMO-1 DEB 2.9 13:46:56 10° WSW 13:49:49 63° S 13:52:10 14° E
SMAP 3.4 13:46:14 10° S 13:50:52 73° WSW 13:55:33 10° NNW
Cosmos 1603 3.8 13:47:07 10° NNW 13:52:50 84° WSW 13:58:34 10° SSE
FengYun 1-2 T 4.3 13:49:02 10° SSE 13:54:36 90° E 14:00:15 10° NNW
Cosmos 1726 Rocket 3.9 13:50:43 10° N 13:54:52 41° ENE 13:59:01 10° SE
Cosmos 1634 Rocket 4.0 13:48:38 10° N 13:54:54 82° E 14:01:11 10° SSE
ADEOS Rocket 3.9 13:50:11 10° N 13:56:17 49° WNW 14:01:49 10° SW
Cosmos 2297 Rocket 3.3 13:51:35 10° WSW 13:56:54 40° NW 14:02:14 10° NNE
USA 229 DEB 4.4 13:52:56 10° NW 13:59:27 40° NNE 14:05:08 15° ENE
USA 229 4.4 13:53:02 10° NW 13:59:32 39° NNE 14:05:12 15° ENE
RESURS DK-1 2.6 13:55:36 10° SSW 13:59:37 52° ESE 14:03:01 14° NE
Meteor 2-5 Rocket 3.8 13:55:52 10° S 14:01:17 56° E 14:06:42 10° NNE
Landsat 5 3.5 13:59:41 10° NNE 14:03:43 74° WNW 14:07:36 10° SSW
CZ-2C R/B 3.3 13:59:08 10° SE 14:04:16 53° ENE 14:09:42 10° N
NOSS 3-4 (A) 3.5 13:59:36 10° SW 14:05:34 78° NW 14:11:22 13° NE
NOSS 3-4 (C) 3.5 13:59:42 10° SW 14:05:40 78° NW 14:11:28 13° NE
Cosmos 2082 4.2 14:01:36 10° SW 14:07:16 61° NW 14:12:56 10° NNE
CZ-2D R/B 3.3 14:04:57 10° SSE 14:08:43 53° ENE 14:12:29 10° N
COSMO-SKYMED 1 3.1 14:05:50 10° NNE 14:09:55 38° E 14:13:58 10° SSE
CSL-04 Rocket 4.4 14:06:38 10° ESE 14:11:20 31° ENE 14:16:05 10° N
SL-14 R/B 3.1 14:08:53 10° S 14:12:43 69° E 14:16:38 10° NNE
Okean-O 3.0 14:08:55 10° SE 14:13:02 39° ENE 14:17:11 10° N
Cosmos 1536 Rocket 4.0 14:09:02 10° SSW 14:13:23 65° WNW 14:17:49 10° N
Cosmos 1503 Rocket 4.0 14:08:06 10° SSW 14:13:26 70° ESE 14:18:49 10° NNE
NOSS 3-1 (A) 4.4 14:08:42 10° NW 14:14:58 40° NNE 14:20:10 19° ENE
Meteor 2-10 Rocket 3.8 14:10:32 10° N 14:16:03 52° ENE 14:21:19 10° SSE
COSMOS 2455 3.9 14:11:20 10° SSE 14:16:10 26° ESE 14:18:41 20° ENE
ATLAS 5 CENTAUR R/B 1.9 14:13:21 10° SSW 14:17:13 44° SE 14:19:42 22° ENE
Cosmos 1626 2.2 14:15:52 10° SSW 14:19:33 77° W 14:23:17 10° N
Okean O Rocket 2.6 14:15:37 10° S 14:19:56 50° W 14:24:17 10° NNW
USA 281 4.5 14:17:36 17° ENE 14:20:03 21° NNE 14:24:40 10° NNW
H-2A R/B 2.3 14:15:33 10° SE 14:20:15 44° ENE 14:25:05 10° N
ATLAS 2AS CENTAUR R/B 3.1 14:15:16 10° SW 14:23:15 82° NW 14:29:51 16° NE
Tsikada Rocket 4.5 14:18:27 10° SSW 14:24:44 64° WNW 14:30:59 10° N
Lacrosse 5 1.8 14:19:49 10° WNW 14:24:54 78° NNE 14:28:25 20° ESE
CZ-4C R/B 2.4 14:20:44 10° SW 14:25:56 75° NW 14:30:49 18° NE
COSMOS 2406 4.4 14:23:42 10° NNW 14:28:22 24° NNE 14:29:55 22° ENE
Cosmos 1680 Rocket 4.2 14:27:18 10° NNW 14:32:05 33° NE 14:34:00 26° E
Cosmos 2263 Rocket 2.1 14:27:18 10° SSW 14:32:59 79° ESE 14:37:39 16° NE
Cosmos 2180 Rocket 4.5 14:28:41 10° N 14:35:06 81° E 14:41:31 10° SSE
Cosmos 773 Rocket 4.4 14:32:34 10° NNW 14:37:43 66° WSW 14:42:47 10° SSE
Cosmos 1939 Rocket 3.7 14:34:04 10° S 14:38:07 55° W 14:42:10 10° NNW
SAR-Lupe-4 4.4 14:39:01 32° ESE 14:39:01 32° ESE 14:41:46 10° SSE
Aureole 3 3.5 14:38:25 10° N 14:42:05 41° ENE 14:42:05 41° ENE
Meteor 1-24 Rocket 3.5 14:38:47 10° SSW 14:44:09 90° WNW 14:49:30 10° NNE
Cosmos 1606 Rocket 4.2 14:40:35 10° NNW 14:44:53 57° W 14:49:11 10° S
SeaSat 1 4.4 14:41:38 10° NNE 14:45:20 22° NW 14:49:02 10° W
CZ-4 R/B 1.3 14:41:48 10° SSE 14:45:54 81° ENE 14:49:59 10° NNW
H-2A R/B 3.2 14:42:16 10° N 14:46:35 46° WNW 14:50:48 10° SW
Cosmos 158 Rocket 4.1 14:41:24 10° NNW 14:46:36 53° ENE 14:50:12 20° SE
Nadezhda 4 Rocket 4.1 14:41:36 10° SSE 14:47:34 50° E 14:53:32 10° NNE
YAOGAN 1 2.4 14:43:55 10° SSE 14:48:14 74° ENE 14:52:34 10° NNW
Cosmos 1455 2.3 14:44:40 10° N 14:48:23 49° ENE 14:48:46 47° E
Cosmos 1892 Rocket 3.4 14:44:55 10° S 14:49:13 69° E 14:52:30 17° NNE
Cosmos 2344 4.2 14:41:41 10° NW 14:50:01 60° NNE 14:57:19 23° ESE
Cosmos 1300 4.4 14:47:38 10° NNW 14:51:09 35° W 14:54:38 10° SSW
USA 234 3.2 14:47:18 26° E 14:51:13 75° NNE 14:57:47 10° WNW
ARGOS 3.1 14:48:15 10° SSE 14:53:30 60° ENE 14:58:47 10° N
CSL-04 Debris 4.1 14:51:59 10° SSE 14:57:19 66° ENE 15:02:41 10° NNW
SKYMED 2 3.6 14:53:45 10° NNE 14:58:06 80° WNW 15:02:26 10° SSW
CZ-4B R/B 1.9 14:55:55 19° N 14:58:09 58° WNW 15:01:28 10° SSW
CZ-2C R/B 3.9 15:01:04 23° SE 15:01:04 23° SE 15:03:47 10° SSE
Cosmos 2082 Rocket 3.5 14:55:35 10° NNW 15:00:00 22° NNE 15:00:03 22° NNE
GENESIS II 4.1 14:56:24 10° SW 15:00:25 82° SE 15:01:07 59° ENE
Cosmos 1833 Rocket 3.6 14:58:07 10° NNW 15:03:02 30° NE 15:03:03 30° NE
Cosmos 1538 Rocket 4.3 14:59:17 10° NNW 15:04:27 67° WSW 15:09:33 10° SSE
Meteor 1-21 Rocket 4.3 15:02:23 10° SSE 15:07:39 47° E 15:08:46 42° ENE
Cosmos 2112 Rocket 4.1 15:03:54 10° NNW 15:09:03 50° ENE 15:09:34 48° ENE
Cosmos 2058 Rocket 3.6 15:07:07 10° NNW 15:11:34 61° W 15:16:00 10° S
Iridium 4 Rocket 3.8 15:06:03 10° N 15:11:47 52° E 15:17:08 10° SSE
SJ 16-02 2.8 15:08:32 10° S 15:10:29 23° SSE 15:10:29 23° SSE
Cosmos 1777 Rocket 3.9 15:10:00 10° SSW 15:15:16 85° ESE 15:17:34 35° NNE
ERS-2 2.2 15:15:58 68° NNW 15:16:16 75° WNW 15:19:54 10° SSW
Cosmos 2227 Rocket 4.2 15:12:58 10° WNW 15:17:13 21° NNW 15:21:02 11° NNE
Meteor 2-13 Rocket 4.3 15:14:56 10° S 15:21:02 77° E 15:27:11 10° NNE
Okean 1-7 Rocket 3.6 15:17:42 10° S 15:22:15 86° W 15:24:04 37° N
Helios 1A Rocket 3.4 15:18:37 10° S 15:22:43 62° WSW 15:26:52 10° NNW
SL-08 RB Rocket 3.6 15:24:27 72° NE 15:24:27 72° NE 15:28:42 10° NNW
MOS 1 Rocket 3.6 15:23:14 16° N 15:26:33 57° WNW 15:30:45 10° SSW
Cosmos 1844 Rocket 2.8 15:22:53 10° S 15:27:56 52° SE 15:27:56 52° SE
APEX 4.4 15:25:43 10° SSW 15:32:40 70° ESE 15:34:11 53° ENE
NOSS 3-1 (C) 3.9 15:28:31 10° NW 15:35:38 77° NE 15:38:25 45° ESE
RESURS DK-1 4.1 15:34:17 10° WSW 15:37:53 28° NW 15:38:55 25° NNW
Cosmos 2297 Rocket 4.4 15:39:08 10° WNW 15:42:35 16° NNW 15:45:10 12° N
COSMO-SKYMED 1 4.3 15:42:23 11° N 15:46:01 31° WNW 15:49:51 10° SW
Okean-O 4.5 15:45:41 10° SSW 15:49:37 31° W 15:53:34 10° NNW
Cosmos 2195 Rocket 4.3 15:43:54 10° S 15:50:13 77° E 15:56:35 10° NNE
CSL-04 Rocket 4.3 15:46:07 10° S 15:51:24 56° WSW 15:56:49 10° NNW
USA 229 DEB 3.8 15:44:15 10° NW 15:51:27 74° NE 15:52:36 63° E
USA 229 3.7 15:44:22 10° NW 15:51:32 74° NE 15:52:40 63° E
USA 267 3.7 15:58:08 43° SSE 15:58:08 43° SSE 16:03:21 10° SSW
NOSS 3-4 (A) 4.5 15:51:39 10° W 15:57:22 37° NNW 15:58:49 33° NNE
NOSS 3-4 (C) 4.5 15:51:45 10° W 15:57:28 37° NNW 15:58:55 34° NNE
H-2A R/B 3.6 15:55:20 10° SSW 15:59:49 33° W 16:04:26 10° NNW
COSMOS 2455 2.8 15:55:30 10° SW 16:01:33 80° NW 16:01:53 77° N
Ariane Rocket 4.4 16:04:27 29° N 16:04:27 29° N 16:06:53 10° NNW
ATLAS 5 CENTAUR R/B 2.7 15:57:48 10° WSW 16:01:15 40° NW 16:01:15 40° NW
USA 281 3.5 16:04:27 50° NNE 16:04:27 50° NNE 16:09:46 10° NNW
Meteor 2-15 4.4 15:59:04 10° N 16:04:42 75° N 16:04:42 75° N
NOSS 3-1 (A) 3.8 15:59:46 10° NW 16:06:55 77° NE 16:07:38 72° E
Lacrosse 5 2.9 16:02:59 10° WNW 16:07:39 38° SW 16:07:39 38° SW
Cosmos 1092 Rocket 4.1 16:06:49 10° SSW 16:13:00 72° WNW 16:19:12 10° N
COSMOS 2406 3.8 16:07:48 10° NNW 16:12:00 48° NNW 16:12:00 48° NNW
Cosmos 1680 Rocket 4.2 16:09:21 10° NNW 16:14:23 52° WSW 16:14:23 52° WSW
ATLAS 2AS CENTAUR R/B 3.7 16:07:47 10° W 16:15:15 43° NNW 16:17:17 36° NNE
CZ-4C R/B 3.4 16:10:10 10° W 16:15:27 36° NNW 16:16:01 36° N
Cosmos 2263 Rocket 3.8 16:12:38 10° W 16:17:32 29° NW 16:19:22 24° N
USA 234 3.5 16:34:38 60° SW 16:34:38 60° SW 16:40:55 10° WNW
CZ-2C R/B 4.4 16:42:34 25° SW 16:42:34 25° SW 16:44:51 10° SW
Cosmos 2082 Rocket 3.9 16:39:25 10° NNW 16:41:55 26° NNW 16:41:55 26° NNW
Cosmos 1833 Rocket 4.2 16:41:54 10° NW 16:44:46 31° NW 16:44:46 31° NW
SJ 16-02 4.3 16:47:17 10° WSW 16:47:32 11° WSW 16:47:32 11° WSW
